Regional Weather Roundup
Issued by NWS

Home | Current Version | Previous Version | Text Only | Print | Product List | Glossary Off
Versions: 1 2 3 4 5 6 7 8 9 10 11 12 13 14 15 16 17 18 19 20 21 22 23 24 25 26 27 28 29 30 31 32 33 34 35 36 37 38 39 40 41 42 43 44 45 46 47 48 49 50

000
ASUS43 KBIS 221602
RWRND

NORTH DAKOTA REGIONAL WEATHER ROUNDUP
NATIONAL WEATHER SERVICE BISMARCK ND
1100 AM CDT FRI SEP 22 2017

NOTE: "FAIR" INDICATES FEW OR NO CLOUDS BELOW 12,000 FEET WITH NO
SIGNIFICANT WEATHER AND/OR OBSTRUCTIONS TO VISIBILITY.


NDZ001>003-009>011-017-221700-
NORTHWEST NORTH DAKOTA

CITY           SKY/WX    TMP DP  RH WIND       PRES   REMARKS
WILLISTON      CLOUDY    47  39  74 N12       29.99F
MINOT          LGT RAIN  50  39  66 N18G25    29.90S
MINOT AFB      CLOUDY    50  38  63 N15G23    29.89F
$$

NDZ018>021-031>035-040>046-221700-
SOUTHWEST NORTH DAKOTA

CITY           SKY/WX    TMP DP  RH WIND       PRES   REMARKS
BISMARCK       CLOUDY    56  44  64 N10       29.79R
DICKINSON      CLOUDY    46  41  82 N17       29.90R
GARRISON         N/A     50  39  66 N13G23    29.85F
HETTINGER ARPT CLOUDY    50  37  61 N23G29    29.86R
$$

NDZ004>008-012>016-024-026-027-054-221700-
NORTHEAST NORTH DAKOTA

CITY           SKY/WX    TMP DP  RH WIND       PRES   REMARKS
GRAND FORKS    CLOUDY    63  55  75 N17       29.79F
GRND FRKS AFB  CLOUDY    59  51  76 NE15      29.80F
DEVILS LAKE    CLOUDY    57  43  59 NE21      29.83F
$$

NDZ022-023-025-028>030-036>039-047>053-221700-
SOUTHEAST NORTH DAKOTA

CITY           SKY/WX    TMP DP  RH WIND       PRES   REMARKS
FARGO          PTSUNNY   71  64  78 NE10      29.71F
JAMESTOWN      CLOUDY    59  52  77 NE17G25   29.74R
$$





USA.gov is the U.S. government's official web portal to all federal, state and local government web resources and services.